Hourly Data Report for August 09, 2021

FLIN FLON
MANITOBA
Current Station Operator: ECCC - MSC

54°41'00.000" N
101°41'00.000" W
303.90 m
5050919
71954
WFO

Download Data

Hourly Data (August 2021)
Hourly Data Report for August 9, 2021
TIME
LST
Temp Definition
°C
Dew Point Definition
°C
Rel Hum Definition
%
Precip. Amount Definition
mm

Wind Dir Definition
10's deg

Wind Spd Definition
km/h
Visibility Definition
km
Stn Press Definition
kPa
Hmdx Definition


Wind Chill Definition


Weather Definition


00:00 15.2 12.5 84 0.0 31 10   97.25     LegendNANA
01:00 13.9 12.1 89 0.0 1 11   97.30     LegendNANA
02:00 14.4 12.5 88 0.0 36 8   97.41     LegendNANA
03:00 13.3 12.0 92 0.0 35 13   97.41     LegendNANA
04:00 12.4 11.2 92 0.0 36 11   97.46     LegendNANA
05:00 11.8 10.8 93 0.0 36 10   97.52     LegendNANA
06:00 11.5 10.5 94 0.0 1 8   97.54     LegendNANA
07:00 12.4 11.2 92 0.0 1 6   97.56     LegendNANA
08:00 14.0 10.5 80 0.0 2 8   97.57     LegendNANA
09:00 15.0 9.9 72 0.0 9 6   97.57     LegendNANA
10:00 15.8 9.1 64 0.0 9 7   97.59     LegendNANA
11:00 16.7 8.9 60 0.0 3 4   97.58     LegendNANA
12:00 17.4 8.4 56 0.0 9 7   97.49     LegendNANA
13:00 18.5 8.7 53 0.0 18 4   97.49     LegendNANA
14:00 18.8 8.8 52 0.0 19 10   97.47     LegendNANA
15:00 18.8 9.0 53 0.0 8 5   97.40     LegendNANA
16:00 19.8 9.2 50 0.0 18 5   97.34     LegendNANA
17:00 19.6 9.5 52 0.0 20 5   97.28     LegendNANA
18:00 19.1 10.9 59 0.0 19 12   97.27     LegendNANA
19:00 18.4 11.5 64 0.0 21 9   97.23     LegendNANA
20:00 17.2 11.9 71 0.0 23 9   97.17     LegendNANA
21:00 16.0 11.8 76 0.0 22 4   97.13     LegendNANA
22:00 15.4 13.2 86 0.0 21 9   97.07     LegendNANA
23:00 17.6 14.0 80 0.0 20 12   97.00     LegendNANA

Notes on Data Quality.

Legend

  • E = Estimated
  • M = Missing
  • NA = Not Available*
  • [empty] = Indicates an unobserved value
Date modified: